sat.trackr.live / text

‹ back to catalog

STARLINK-33768

NORAD 63454 · 2025-069X

PAYLOAD ACTIVE UNKNOWN

§ Identity

Operator
Country
US
Launch date
2025-04-04
Launch site
AFWTR
Launch vehicle
Mass (kg)
RCS (m²)

Purposes: comms

External: N2YO · Heavens-Above · Gunter

§ Orbital elements

Epoch: 2026-09-20T20:25:20.204256Z

Period
93.85 min
Inclination
53.1606°
Eccentricity
0.0001605
Mean motion
15.34398725 rev/d
Perigee alt
461.6 km
Apogee alt
463.8 km
Semi-major
6,840.8 km
B*
3.2115e-4
RAAN
308.2221°
Arg perigee
72.8984°
Mean anomaly
287.2195°
Rev number
8,338

§ Raw data

STARLINK-337681 63454U 25069X   26263.85092829  .00010489  00000+0  32115-3 0  99922 63454  53.1606 308.2221 0001605  72.8984 287.2195 15.34398725 83386

JSON: /api/v1/satellites/63454 · /tle

For live sub-satellite position, see the globe view (requires WebGL).

§ Visibility from observer

Set your observer location to see the next 7 days of passes ≥ 10°. The values pass through the URL so the page stays shareable.

No JS? Fill the form by hand. The geolocation button needs JavaScript.